Location: Ocean City
(38.3360°N, 75.0850°W)
Time: 16:50:07
(UTC-04:00)

BEESAT 2 - Pass Details

Date: 26 May 2019
Orbit: 502 x 528 km, 64.9° (Epoch: 16 June)

Event Time Altitude Azimuth Distance (km) Brightness Sun altitude
Rises 03:56:24 0° 315° (NW) 2,669 ? -17.2°
Reaches altitude 10° 03:58:54 10° 301° (WNW) 1,775 ? -16.9°
Enters shadow 04:00:33 18° 280° (W) 1,326 ? -16.7°
